Wind_Speed
1 2 4 4 4 4 4 4 4 4 4 4 4 4 4 4 4 4 4 4 4 5 5 5 5 5 5 6 6 6 6 7 7 7 7 7 7 7 7 7 7 7 7
1 2 2 3 3 3 4 4 4 4 4 4 4 4 4 4 4 4 4 5 5 5 5 6 6 5 5 5 7 8 9 8 8 9 9 9 9 9 9 9 9 9 9
1 1 2 2 2 3 3 3 4 4 4 4 5 5 5 5 5 5 5 5 6 6 6 6 6 6 6 7 8 8 9 9 9 10 10 10 10 10 10 10 10 10 10
2 2 1 1 2 2 2 3 4 4 4 4 4 5 5 6 5 5 5 5 6 7 7 7 7 8 8 8 9 9 9 9 9 10 10 10 11 11 11 11 12 12 12
2 2 2 2 3 2 2 2 3 4 4 4 4 5 5 5 6 7 7 7 7 7 7 8 8 9 9 10 10 10 11 10 11 11 11 11 12 12 12 12 13 14 14
3 3 2 2 2 2 2 3 3 4 5 5 6 6 5 6 6 7 8 8 8 8 8 9 9 10 10 11 11 11 12 12 12 12 13 13 12 13 13 14 14 15 15
5 4 3 2 2 3 3 3 4 5 6 6 7 7 7 8 8 8 8 8 9 9 9 10 10 10 11 12 13 13 13 13 14 14 14 14 14 15 15 15 16 16 16
6 5 4 4 2 2 3 4 5 5 6 7 8 8 8 9 9 9 9 9 10 10 11 11 12 12 12 12 13 14 14 15 15 16 16 16 16 16 17 17 17 18 18
7 6 5 5 4 3 3 3 4 5 6 7 8 9 9 10 9 9 10 10 10 12 12 13 13 13 14 14 15 15 16 16 16 16 16 17 18 18 18 18 18 19 19
8 7 7 6 6 5 5 5 6 6 7 8 8 9 9 9 9 9 10 11 12 13 13 14 14 15 15 15 15 16 17 17 18 18 18 18 19 19 19 20 20 20 20
10 8 7 6 6 6 6 6 7 7 7 7 8 8 9 9 10 10 11 12 13 14 14 15 15 15 15 15 16 17 17 18 18 19 19 19 20 20 21 21 21 21 22
10 9 9 8 7 7 7 7 8 8 8 8 8 9 10 10 10 10 11 12 14 15 15 16 16 17 17 16 16 17 18 19 19 20 20 21 21 22 22 23 23 23 23
10 11 10 9 8 8 8 9 9 8 9 9 9 9 10 11 11 12 12 13 14 15 16 16 17 17 17 17 18 19 19 20 21 21 22 23 23 24 24 24 24 24 24
11 11 10 10 10 10 10 10 10 10 10 10 10 11 11 11 12 13 13 14 14 16 17 18 18 18 18 19 19 20 21 21 22 23 23 24 24 25 25 24 24 25 25
12 11 11 10 10 11 11 11 10 10 10 11 11 12 12 13 13 14 15 15 16 17 17 19 19 19 19 20 21 22 21 21 21 22 23 23 24 24 24 24 25 25 26
13 13 12 12 11 12 12 12 12 12 12 12 13 14 14 14 14 15 16 17 17 17 17 18 18 19 20 21 22 22 21 21 22 22 23 24 24 24 24 25 25 25 26
15 14 14 13 13 14 14 14 14 14 14 14 14 15 16 16 16 16 16 17 18 18 18 18 19 19 20 21 21 21 21 21 22 22 23 24 24 24 24 25 25 26 26
16 16 16 16 16 16 16 16 16 15 15 15 16 16 16 17 18 18 18 19 19 19 19 19 19 20 20 21 21 21 22 22 22 22 23 23 24 24 25 25 25 25 25
18 18 18 17 17 17 17 18 17 17 17 18 18 18 18 18 19 20 20 20 21 21 21 20 21 21 21 21 22 22 22 22 23 23 23 24 25 25 26 26 26 27 27
20 20 20 20 20 19 19 19 19 19 19 20 20 20 20 20 20 20 21 22 22 22 22 22 22 22 22 22 22 22 22 23 23 24 25 25 25 26 26 26 27 27 27
22 23 23 22 21 20 21 21 21 21 21 21 22 21 21 22 22 22 22 23 23 23 23 23 23 23 23 23 23 23 23 24 24 24 24 25 26 26 26 26 27 28 28
25 24 24 23 23 23 23 23 23 23 24 24 24 23 23 23 23 23 23 24 24 24 24 24 25 25 25 25 25 25 25 25 25 25 25 26 26 26 27 27 27 27 27
26 26 25 26 26 26 25 25 25 25 25 25 25 25 25 25 26 26 25 26 26 26 26 26 26 26 26 26 26 26 27 27 27 27 27 27 27 28 28 27 27 27 27
28 27 27 28 27 28 28 27 27 27 27 28 28 28 27 28 28 28 27 27 28 28 28 28 28 28 28 28 27 27 28 28 28 29 29 29 29 29 29 29 28 28 28
30 29 29 29 29 30 30 30 29 30 30 30 31 30 30 30 30 30 30 30 30 30 30 30 29 29 29 29 29 29 29 29 30 30 30 31 30 30 29 29 30 30 30
33 32 31 31 32 32 32 32 32 32 31 32 32 31 32 32 32 32 32 32 32 32 31 31 30 30 30 30 30 31 31 31 31 32 32 32 32 31 31 31 32 32 32
Wind_Direction
261 228 212 208 209 220 223 222 223 214 215 214 223 237 239 240 239 246 257 261 262 262 264 264 271 278 278 262 252 259 263 258 256 260 264 267 272 277 279 281 285 286 281
294 257 227 214 226 229 222 222 232 233 235 231 236 245 251 252 246 250 261 267 269 265 267 272 271 274 272 269 260 262 265 264 261 262 264 268 272 275 278 278 279 281 279
307 273 251 230 230 224 227 234 242 251 245 240 245 248 256 260 260 263 268 270 269 267 269 276 274 273 272 271 271 271 272 268 264 265 267 268 271 273 275 273 274 276 277
314 297 279 259 254 242 249 250 243 248 247 251 255 260 261 267 270 274 274 274 274 277 276 278 279 279 278 277 278 275 274 273 270 272 272 272 269 273 274 272 272 273 276
3 323 300 282 271 261 260 259 249 257 260 261 265 270 270 272 274 278 281 280 279 280 280 279 282 283 279 279 279 277 275 274 274 275 276 276 277 276 275 274 272 274 277
34 19 346 286 269 256 263 274 266 263 265 266 268 274 273 274 278 284 286 284 281 282 285 284 284 285 281 279 279 279 277 276 275 275 275 276 279 279 279 278 276 277 278
39 35 15 336 268 252 268 281 275 271 272 275 274 275 274 277 282 281 285 287 285 283 282 282 287 283 283 283 280 278 275 275 275 277 276 277 279 279 281 282 279 277 277
35 30 16 3 344 288 280 282 281 279 283 282 278 275 274 276 277 279 281 282 286 288 285 283 284 284 285 285 283 280 277 275 276 276 276 278 280 281 280 281 282 279 276
26 20 13 7 360 346 327 308 300 290 286 288 288 283 279 280 284 283 285 287 289 289 286 286 286 286 284 284 284 281 279 280 279 278 278 277 278 278 279 280 282 280 278
15 11 7 357 349 337 332 331 322 312 303 294 291 289 287 287 289 288 286 287 290 292 292 291 291 287 284 284 284 283 281 280 279 279 280 279 278 278 279 281 281 280 278
10 5 2 356 349 339 333 332 330 326 321 312 301 296 291 289 289 288 288 289 290 292 293 290 292 290 286 285 282 283 282 281 279 278 278 279 279 278 278 279 280 279 278
8 4 360 356 350 339 331 327 324 325 326 321 314 305 299 298 297 293 293 292 292 291 290 290 290 289 287 283 282 284 283 281 280 279 278 278 279 279 278 278 279 278 278
0 359 356 353 348 341 335 330 327 323 324 322 319 315 307 303 301 300 298 298 298 297 294 290 289 288 287 284 282 282 283 281 280 280 280 280 280 280 279 279 278 278 278
355 353 349 348 349 344 338 332 329 321 319 321 319 315 311 310 309 306 303 303 302 302 300 295 292 291 290 289 286 282 281 281 281 281 282 282 282 282 281 281 279 278 278
347 345 342 341 342 342 337 332 328 322 318 319 319 317 311 307 306 306 306 305 303 303 301 297 293 291 291 290 289 285 282 283 283 283 284 284 284 284 282 280 281 279 278
334 335 333 332 332 331 331 328 322 318 315 313 312 315 314 312 310 308 307 305 304 303 303 301 299 294 293 291 291 290 285 284 284 284 285 284 283 284 283 281 281 280 279
324 324 324 322 320 321 322 320 319 315 313 312 310 310 311 310 309 310 310 308 307 305 306 305 303 301 299 296 295 293 289 288 286 285 286 287 286 285 285 284 282 281 281
316 315 316 315 312 312 313 316 314 313 311 312 311 309 310 310 308 306 306 307 306 304 305 305 304 302 302 301 300 298 295 292 291 289 289 288 287 287 287 287 285 283 282
310 309 310 310 308 308 310 312 311 309 310 310 308 309 309 309 309 307 305 305 305 304 304 303 303 302 302 302 301 300 298 295 294 292 292 290 289 289 289 287 286 285 283
303 303 304 307 306 305 305 307 306 306 307 310 308 306 305 305 304 306 306 306 305 304 303 302 302 302 302 302 302 301 299 299 297 294 292 292 293 292 291 290 288 287 285
301 301 301 303 303 303 303 303 302 302 303 304 305 304 304 303 301 302 303 306 305 304 303 302 302 302 302 301 300 301 301 300 299 298 296 294 294 294 293 290 290 288 286
298 300 301 302 301 300 298 298 298 298 298 299 300 301 303 304 302 300 301 302 304 304 304 303 301 301 301 301 300 300 299 299 299 298 298 297 296 296 296 294 292 290 287
297 299 298 298 298 298 295 294 295 298 297 296 297 298 300 303 301 299 299 300 301 303 304 303 301 300 299 300 299 299 298 298 298 297 298 298 297 296 296 294 293 292 290
292 292 292 294 296 297 296 292 294 296 295 294 295 296 298 299 300 299 298 298 299 299 301 301 301 299 298 298 298 298 298 298 297 297 297 298 297 296 296 294 292 290 289
287 288 290 291 291 292 292 292 292 294 292 292 293 293 295 296 296 296 296 297 297 297 297 299 298 297 297 297 297 298 298 298 298 297 297 298 297 296 295 294 293 291 290
282 283 285 287 287 287 287 288 289 292 291 291 291 292 295 295 295 295 295 295 296 295 295 296 296 296 296 297 297 296 297 297 297 297 296 297 297 296 294 294 293 292 290
Height
5886 5886 5887 5888 5888 5889 5890 5890 5891 5892 5892 5893 5893 5894 5894 5895 5895 5896 5895 5896 5897 5897 5898 5898 5898 5898 5898 5899 5899 5900 5900 5901 5901 5901 5901 5901 5902 5902 5902 5901 5901 5901 5901
5886 5886 5887 5887 5888 5889 5889 5890 5891 5891 5892 5892 5893 5893 5894 5894 5894 5895 5895 5895 5896 5896 5897 5897 5897 5897 5897 5898 5898 5898 5899 5899 5899 5899 5899 5899 5900 5900 5900 5899 5899 5899 5899
5886 5886 5886 5887 5888 5888 5889 5889 5890 5891 5891 5892 5892 5893 5893 5893 5893 5894 5894 5894 5895 5895 5895 5896 5896 5896 5896 5896 5896 5897 5896 5896 5897 5897 5897 5897 5897 5897 5897 5897 5897 5897 5897
5885 5886 5886 5887 5887 5887 5888 5889 5889 5890 5890 5891 5891 5892 5892 5892 5892 5893 5893 5893 5893 5894 5894 5894 5894 5895 5895 5895 5895 5895 5894 5894 5894 5894 5895 5894 5894 5894 5894 5894 5894 5894 5894
5885 5885 5885 5886 5886 5887 5888 5888 5888 5889 5889 5890 5890 5890 5891 5891 5891 5891 5892 5892 5892 5892 5892 5892 5892 5893 5893 5893 5893 5892 5892 5892 5892 5892 5892 5892 5892 5892 5891 5891 5891 5891 5891
5885 5885 5885 5885 5886 5886 5887 5887 5888 5888 5888 5889 5889 5889 5889 5889 5889 5889 5890 5890 5890 5890 5890 5890 5890 5890 5890 5890 5890 5890 5890 5890 5889 5889 5889 5889 5889 5888 5888 5888 5888 5888 5887
5885 5885 5884 5884 5885 5886 5886 5886 5887 5887 5887 5887 5888 5888 5888 5888 5887 5888 5888 5888 5888 5888 5888 5888 5888 5888 5887 5887 5887 5887 5887 5886 5886 5886 5886 5886 5885 5885 5885 5884 5884 5884 5883
5885 5885 5884 5884 5884 5885 5885 5885 5885 5886 5886 5886 5886 5886 5886 5887 5886 5886 5886 5885 5885 5885 5885 5885 5885 5885 5885 5884 5884 5883 5883 5883 5883 5882 5882 5882 5882 5881 5881 5880 5880 5879 5879
5886 5885 5885 5884 5884 5884 5884 5884 5884 5884 5884 5884 5883 5884 5884 5884 5883 5884 5883 5883 5882 5883 5882 5882 5881 5881 5881 5881 5880 5880 5879 5879 5879 5878 5878 5877 5877 5877 5876 5876 5875 5875 5874
5886 5885 5885 5884 5884 5884 5884 5883 5883 5882 5882 5882 5881 5881 5881 5881 5881 5881 5881 5881 5880 5880 5878 5878 5878 5878 5877 5877 5876 5876 5875 5875 5874 5874 5874 5873 5873 5872 5872 5871 5871 5870 5869
5886 5885 5884 5884 5884 5883 5883 5883 5882 5881 5881 5880 5879 5879 5878 5878 5878 5878 5877 5878 5877 5876 5875 5875 5874 5873 5873 5873 5872 5872 5871 5870 5870 5869 5869 5868 5868 5867 5866 5866 5865 5865 5864
5886 5885 5884 5884 5883 5882 5882 5882 5881 5880 5879 5878 5877 5877 5876 5875 5875 5874 5874 5874 5873 5872 5871 5871 5870 5869 5869 5868 5867 5867 5866 5866 5865 5864 5864 5863 5862 5862 5861 5860 5860 5859 5858
5886 5885 5884 5883 5882 5882 5881 5880 5879 5878 5878 5877 5876 5875 5874 5873 5872 5872 5871 5870 5869 5868 5867 5867 5865 5865 5864 5864 5863 5862 5861 5860 5860 5859 5858 5858 5857 5856 5855 5854 5854 5853 5852
5886 5885 5884 5883 5881 5880 5880 5879 5878 5877 5876 5875 5874 5873 5872 5871 5870 5869 5868 5867 5866 5865 5863 5862 5861 5860 5859 5859 5858 5857 5856 5855 5854 5853 5852 5852 5851 5850 5849 5848 5847 5847 5846
5886 5884 5883 5882 5881 5879 5878 5877 5876 5875 5874 5873 5872 5871 5869 5868 5867 5866 5865 5863 5863 5861 5860 5857 5856 5855 5854 5853 5852 5850 5849 5849 5848 5847 5846 5845 5844 5843 5843 5842 5841 5840 5839
5885 5883 5882 5880 5879 5878 5876 5875 5874 5873 5872 5870 5869 5868 5867 5865 5864 5862 5861 5860 5858 5857 5855 5853 5852 5850 5849 5847 5845 5843 5843 5843 5842 5841 5840 5838 5838 5837 5836 5835 5834 5833 5833
5883 5881 5880 5879 5877 5876 5874 5873 5871 5870 5869 5867 5866 5865 5863 5862 5861 5859 5858 5856 5854 5853 5851 5849 5847 5846 5844 5843 5841 5839 5838 5837 5836 5835 5834 5833 5832 5831 5830 5828 5827 5827 5826
5881 5879 5878 5876 5875 5873 5871 5870 5869 5867 5866 5864 5863 5861 5860 5859 5857 5855 5854 5852 5850 5848 5847 5845 5843 5841 5840 5838 5836 5835 5833 5832 5830 5828 5827 5827 5825 5824 5823 5822 5821 5820 5819
5878 5876 5875 5873 5871 5869 5868 5866 5865 5863 5862 5861 5859 5858 5856 5854 5853 5851 5849 5847 5846 5844 5842 5840 5838 5837 5835 5833 5831 5830 5828 5826 5824 5823 5822 5820 5819 5818 5816 5815 5814 5813 5811
5874 5872 5871 5869 5867 5866 5864 5862 5861 5859 5857 5856 5855 5853 5852 5850 5848 5846 5845 5843 5841 5839 5837 5835 5833 5831 5829 5827 5826 5824 5822 5820 5819 5817 5815 5814 5812 5811 5809 5808 5807 5805 5804
5869 5868 5866 5865 5863 5861 5859 5858 5856 5854 5853 5851 5850 5848 5847 5845 5843 5841 5839 5838 5836 5834 5832 5830 5828 5826 5824 5822 5820 5818 5816 5814 5813 5811 5809 5807 5806 5804 5802 5800 5799 5797 5796
5864 5862 5861 5859 5858 5856 5854 5853 5851 5849 5848 5846 5845 5843 5841 5839 5837 5836 5834 5832 5830 5828 5826 5824 5822 5820 5818 5816 5814 5812 5810 5808 5807 5805 5803 5801 5799 5797 5794 5792 5791 5789 5787
5858 5856 5855 5853 5852 5850 5848 5847 5845 5843 5842 5840 5839 5837 5835 5833 5831 5830 5828 5826 5824 5822 5820 5818 5815 5813 5811 5809 5807 5805 5803 5801 5800 5797 5795 5793 5791 5789 5787 5785 5783 5781 5780
5851 5850 5849 5847 5845 5844 5841 5839 5838 5837 5836 5834 5832 5830 5829 5826 5824 5823 5821 5819 5817 5815 5813 5811 5809 5806 5804 5802 5800 5798 5796 5794 5792 5790 5788 5786 5784 5781 5779 5777 5775 5773 5772
5844 5843 5841 5839 5838 5837 5835 5833 5832 5830 5828 5827 5825 5823 5821 5819 5817 5815 5814 5812 5810 5808 5805 5804 5801 5799 5797 5795 5793 5791 5788 5786 5784 5782 5780 5778 5775 5773 5771 5769 5767 5765 5763
5835 5834 5833 5831 5830 5828 5826 5825 5823 5822 5820 5819 5817 5815 5813 5811 5810 5807 5805 5803 5802 5800 5797 5795 5793 5791 5789 5787 5785 5783 5780 5778 5776 5774 5771 5769 5766 5764 5762 5760 5758 5756 5754